OE6CUD-6 Weather Reports


time (UTC)temp
C
wind
direction
speed
KPH
gust
KPH
rain 1hr
cm
rain 24hr
cm
rain mn
cm
humidity
%
barometer
mb
20260906023701 13 303 0.0 0.0 0.00 0.13 0.00 100 1022.6
20260906023205 13 303 0.0 3.2 0.00 0.13 0.00 100 1022.6
20260906022655 13 303 0.0 3.2 0.00 0.13 0.00 100 1022.6
20260906022131 13 303 0.0 1.6 0.00 0.13 0.00 100 1022.6
20260906021631 13 303 0.0 1.6 0.00 0.13 0.00 100 1022.7
20260906021132 13 56 0.0 1.6 0.00 0.13 0.00 100 1022.7
20260906020603 13 56 0.0 3.2 0.00 0.13 0.00 100 1022.7
20260906020347 13 56 0.0 3.2 0.00 0.13 0.00 100 1022.7
20260906015601 13 56 0.0 1.6 0.00 0.13 0.00 100 1022.7
20260906015346 13 56 0.0 3.2 0.00 0.13 0.00 100 1022.6
20260906014554 13 350 0.0 3.2 0.00 0.13 0.00 100 1022.5
20260906014101 13 355 0.0 3.2 0.00 0.13 0.00 100 1022.5
20260906014054 13 355 0.0 3.2 0.00 0.13 0.00 100 1022.4
20260906013032 13 355 0.0 3.2 0.00 0.13 0.00 100 1022.4
20260906012529 13 355 0.0 3.2 0.00 0.13 0.00 100 1022.3
20260906012022 14 355 0.0 3.2 0.00 0.13 0.00 100 1022.3
20260906011827 14 355 0.0 1.6 0.00 0.13 0.00 100 1022.2
20260906011821 14 355 0.0 3.2 0.00 0.13 0.00 100 1022.3
20260906010504 14 355 0.0 1.6 0.00 0.13 0.00 100 1022.1
20260906010002 14 355 0.0 1.6 0.00 0.13 0.00 100 1022.1
20260906005749 14 355 0.0 3.2 0.00 0.13 0.00 100 1022.4
20260906004955 14 350 0.0 3.2 0.00 0.13 0.00 100 1022.4
20260906004451 14 350 0.0 3.2 0.00 0.13 0.00 100 1022.4
20260906003937 15 275 0.0 3.2 0.00 0.13 0.00 100 1022.3
20260906003434 15 219 0.0 3.2 0.00 0.13 0.00 100 1022.2
20260906002931 14 219 0.0 3.2 0.00 0.13 0.00 100 1022.2
20260906002433 15 257 0.0 3.2 0.00 0.13 0.00 100 1022.2
20260906001930 15 257 0.0 3.2 0.00 0.13 0.00 100 1022.2
20260906001430 15 257 1.6 3.2 0.00 0.13 0.00 100 1022.2
20260906000912 15 257 0.0 3.2 0.00 0.13 0.00 100 1022.2
20260906000418 15 294 0.0 3.2 0.00 0.13 0.00 100 1022.3
20260905235910 15 294 0.0 3.2 0.00 0.13 0.00 100 1022.2
20260905235406 15 316 0.0 3.2 0.00 0.13 0.00 100 1022.3
20260905234902 15 355 0.0 3.2 0.00 0.13 0.00 100 1022.2
20260905234641 15 355 1.6 3.2 0.00 0.13 0.00 100 1022.1
20260905233903 15 342 1.6 3.2 0.00 0.13 0.00 100 1022.2
20260905233403 15 287 0.0 3.2 0.00 0.13 0.00 100 1022.0
20260905232902 15 232 0.0 3.2 0.00 0.13 0.00 100 1022.0
20260905232400 15 232 0.0 3.2 0.00 0.13 0.00 100 1022.1
20260905231900 15 159 1.6 3.2 0.00 0.13 0.00 100 1022.0
20260905231356 15 81 0.0 3.2 0.00 0.13 0.00 100 1022.0
20260905230846 15 321 0.0 3.2 0.00 0.13 0.00 100 1021.9
20260905230340 15 278 1.6 3.2 0.00 0.13 0.00 100 1021.9
20260905225834 15 296 0.0 3.2 0.00 0.13 0.00 100 1022.0
20260905225331 15 289 0.0 3.2 0.00 0.13 0.00 100 1021.8
20260905224830 15 305 0.0 3.2 0.00 0.13 0.00 100 1021.9
20260905224329 15 305 0.0 3.2 0.00 0.13 0.00 100 1021.9
20260905223832 15 234 0.0 3.2 0.00 0.13 0.00 100 1021.9
20260905223331 15 115 0.0 3.2 0.00 0.13 0.00 100 1021.9
20260905222824 15 115 0.0 3.2 0.00 0.13 0.00 100 1021.9
20260905222322 15 115 0.0 3.2 0.00 0.13 0.00 100 1021.8
20260905221845 16 344 0.0 3.2 0.00 0.13 0.00 100 1021.9
20260905221834 16 344 0.0 3.2 0.00 0.13 0.00 100 1021.9
20260905220804 16 344 0.0 3.2 0.00 0.13 0.00 100 1021.9
20260905220318 16 355 1.6 4.8 0.00 0.13 0.13 100 1021.9
20260905220312 16 344 1.6 4.8 0.00 0.13 0.00 100 1021.8
20260905215230 16 321 0.0 3.2 0.00 0.13 0.13 100 1021.9
20260905214730 16 333 1.6 3.2 0.00 0.13 0.13 100 1021.9
20260905214234 16 355 1.6 3.2 0.00 0.13 0.13 100 1021.7
20260905213735 16 96 1.6 4.8 0.00 0.13 0.13 100 1021.7
20260905213231 16 355 1.6 4.8 0.00 0.13 0.13 100 1021.7
20260905212722 16 32 0.0 3.2 0.00 0.13 0.13 100 1021.6
20260905212231 16 31 0.0 3.2 0.00 0.13 0.13 100 1021.6
20260905211715 16 191 0.0 3.2 0.00 0.13 0.13 100 1021.6
20260905211210 16 154 0.0 3.2 0.00 0.13 0.13 100 1021.5
20260905210705 16 215 0.0 3.2 0.00 0.13 0.13 100 1021.4
20260905210204 16 215 0.0 3.2 0.00 0.13 0.13 100 1021.4
20260905205704 16 187 0.0 3.2 0.00 0.13 0.13 100 1021.4
20260905205147 16 187 0.0 3.2 0.00 0.13 0.13 100 1021.4
20260905204639 16 139 1.6 3.2 0.00 0.13 0.13 100 1021.3
20260905204131 16 195 0.0 3.2 0.00 0.13 0.13 100 1021.3
20260905203908 16 188 0.0 3.2 0.00 0.13 0.13 100 1021.3
20260905203125 16 289 0.0 3.2 0.00 0.13 0.13 100 1021.3
20260905202617 16 289 0.0 3.2 0.00 0.13 0.13 100 1021.2
20260905202115 17 298 1.6 1.6 0.00 0.13 0.13 100 1021.1
20260905201616 17 298 1.6 1.6 0.00 0.13 0.13 100 1021.1
20260905201109 17 298 0.0 3.2 0.00 0.13 0.13 100 1021.3
20260905200618 17 300 0.0 3.2 0.00 0.13 0.13 100 1021.1
20260905200113 17 345 0.0 3.2 0.00 0.13 0.13 100 1021.0
20260905195608 17 345 0.0 3.2 0.00 0.13 0.13 100 1021.0
20260905195107 17 338 0.0 3.2 0.00 0.13 0.13 100 1021.0
20260905194600 17 269 0.0 1.6 0.00 0.13 0.13 100 1020.9
20260905194336 17 269 0.0 1.6 0.00 0.13 0.13 100 1020.9
20260905193547 17 269 0.0 1.6 0.00 0.13 0.13 100 1020.8
20260905193037 17 269 0.0 1.6 0.00 0.13 0.13 100 1020.7
20260905192540 17 269 0.0 1.6 0.00 0.13 0.13 100 1020.6
20260905192031 17 269 0.0 1.6 0.00 0.13 0.13 100 1020.7
20260905191531 18 269 0.0 3.2 0.00 0.13 0.13 100 1020.7
20260905191024 18 270 0.0 3.2 0.00 0.13 0.13 100 1020.6
20260905190522 18 314 0.0 3.2 0.00 0.13 0.13 100 1020.6
20260905190014 18 314 0.0 3.2 0.00 0.13 0.13 100 1020.5
20260905185508 18 355 0.0 3.2 0.00 0.13 0.13 100 1020.3
20260905185004 18 328 0.0 3.2 0.00 0.13 0.13 100 1020.5
20260905184455 18 328 1.6 4.8 0.00 0.13 0.13 100 1020.4
20260905183955 18 263 1.6 4.8 0.00 0.13 0.13 100 1020.4
20260905183448 18 261 0.0 3.2 0.00 0.13 0.13 100 1020.4
20260905182937 18 76 0.0 3.2 0.00 0.13 0.13 100 1020.2
20260905182431 18 76 1.6 6.4 0.00 0.13 0.13 100 1020.0
20260905181928 18 102 0.0 6.4 0.00 0.13 0.13 99 1019.8
20260905181427 19 267 0.0 3.2 0.00 0.13 0.13 99 1020.0
20260905180916 19 267 1.6 3.2 0.00 0.13 0.13 98 1019.8
20260905180417 19 270 1.6 3.2 0.00 0.13 0.13 98 1019.7
20260905175904 19 230 1.6 3.2 0.00 0.13 0.13 98 1019.7
20260905175406 19 232 0.0 3.2 0.00 0.13 0.13 99 1019.7
20260905174902 19 100 0.0 3.2 0.00 0.13 0.13 98 1019.6
20260905174627 20 5 0.0 3.2 0.00 0.13 0.13 97 1019.7
20260905173842 20 5 1.6 6.4 0.00 0.13 0.13 96 1019.5
20260905173334 20 235 1.6 6.4 0.00 0.13 0.13 96 1019.4
20260905173114 20 226 1.6 3.2 0.00 0.13 0.13 95 1019.2
20260905172334 20 251 0.0 3.2 0.00 0.13 0.13 94 1019.3
20260905171831 20 251 1.6 3.2 0.00 0.13 0.13 93 1019.3
20260905171329 20 249 1.6 3.2 0.00 0.13 0.13 93 1019.3
20260905170855 21 200 1.6 4.8 0.00 0.13 0.13 91 1019.3
20260905170847 21 217 1.6 3.2 0.00 0.13 0.13 92 1019.3
20260905165829 21 210 1.6 4.8 0.00 0.13 0.13 90 1019.2
20260905165329 21 235 1.6 3.2 0.00 0.13 0.13 89 1019.3
20260905164831 21 207 1.6 3.2 0.00 0.13 0.13 88 1019.2
20260905164609 21 227 1.6 4.8 0.00 0.13 0.13 88 1019.2
20260905163829 21 227 1.6 4.8 0.00 0.13 0.13 86 1019.2
20260905163332 22 256 0.0 4.8 0.00 0.13 0.13 86 1019.2
20260905162826 22 199 0.0 3.2 0.00 0.13 0.13 85 1019.0
20260905162555 22 200 0.0 3.2 0.00 0.13 0.13 86 1019.0
20260905161817 22 185 0.0 3.2 0.00 0.13 0.13 86 1018.9
20260905161304 22 191 1.6 6.4 0.00 0.13 0.13 85 1019.0
20260905160804 22 208 1.6 6.4 0.00 0.13 0.13 84 1018.9
20260905160541 22 203 0.0 3.2 0.00 0.13 0.13 83 1018.9
20260905155802 22 205 1.6 6.4 0.00 0.13 0.13 82 1019.1
20260905155306 22 184 3.2 6.4 0.00 0.13 0.13 82 1019.0
20260905154801 22 135 1.6 8.0 0.00 0.13 0.13 83 1018.9
20260905154545 23 192 1.6 8.0 0.00 0.13 0.13 81 1018.9
20260905153801 23 245 0.0 3.2 0.00 0.13 0.13 80 1018.9
20260905153301 23 222 1.6 4.8 0.00 0.13 0.13 81 1018.9
20260905152802 23 239 3.2 6.4 0.00 0.13 0.13 81 1018.9
20260905152306 23 196 1.6 6.4 0.00 0.13 0.13 81 1019.0
20260905151802 23 200 1.6 6.4 0.00 0.13 0.13 80 1019.1
20260905151303 23 230 1.6 6.4 0.00 0.13 0.13 79 1019.0
20260905151043 23 212 3.2 8.0 0.00 0.13 0.13 82 1019.1
20260905150550 22 159 1.6 8.0 0.00 0.13 0.13 82 1018.9
20260905145802 22 141 1.6 6.4 0.00 0.13 0.13 81 1018.9
20260905145302 23 227 1.6 4.8 0.00 0.13 0.13 81 1019.0
20260905144803 22 85 1.6 6.4 0.00 0.13 0.13 83 1019.0
20260905144549 22 170 1.6 6.4 0.00 0.13 0.13 83 1019.0
20260905143753 22 98 1.6 6.4 0.00 0.13 0.13 80 1019.0
20260905143253 23 152 1.6 6.4 0.00 0.13 0.13 82 1019.0
20260905142750 22 210 1.6 6.4 0.00 0.13 0.13 82 1019.2
20260905142250 22 138 1.6 6.4 0.00 0.13 0.13 81 1019.2
20260905141750 22 195 1.6 6.4 0.00 0.13 0.13 81 1019.4
20260905141252 21 236 1.6 4.8 0.00 0.13 0.13 84 1019.1
20260905141031 22 149 3.2 6.4 0.00 0.13 0.13 84 1019.2
20260905140250 21 182 3.2 6.4 0.00 0.13 0.13 86 1019.2
20260905135749 21 240 1.6 4.8 0.00 0.13 0.13 88 1019.2
20260905135247 21 254 1.6 9.7 0.00 0.13 0.13 87 1019.2
20260905134744 21 162 3.2 11.3 0.00 0.13 0.13 88 1019.2
20260905134244 21 213 3.2 11.3 0.00 0.13 0.13 89 1019.1
20260905133745 21 140 3.2 11.3 0.00 0.13 0.13 90 1019.1
20260905133244 21 150 3.2 11.3 0.00 0.13 0.13 88 1019.1
20260905132743 21 138 4.8 11.3 0.00 0.13 0.13 88 1019.1
20260905132243 21 206 4.8 11.3 0.00 0.13 0.13 87 1019.2
20260905131743 21 212 3.2 11.3 0.00 0.13 0.13 85 1019.2
20260905131242 21 194 3.2 11.3 0.00 0.13 0.13 88 1019.3
20260905130737 21 164 3.2 9.7 0.00 0.13 0.13 89 1019.1
20260905130240 20 150 3.2 12.9 0.00 0.13 0.13 88 1019.0
20260905130020 21 188 4.8 14.5 0.03 0.13 0.13 90 1019.1
20260905125236 21 162 4.8 14.5 0.03 0.13 0.13 88 1019.3
20260905125022 21 185 3.2 8.0 0.03 0.13 0.13 92 1019.3
20260905124230 21 203 3.2 8.0 0.03 0.13 0.13 89 1019.3
20260905123730 20 207 3.2 8.0 0.03 0.13 0.13 91 1019.2
20260905123230 20 223 3.2 8.0 0.03 0.13 0.13 90 1019.1
20260905123020 20 228 1.6 4.8 0.03 0.13 0.13 92 1019.1
20260905122232 20 219 1.6 3.2 0.05 0.13 0.13 94 1019.0
20260905121729 20 246 1.6 4.8 0.05 0.13 0.13 93 1019.3
20260905121222 20 207 3.2 4.8 0.05 0.13 0.13 96 1019.4
20260905120713 19 262 3.2 4.8 0.05 0.13 0.13 95 1019.4
20260905120208 19 284 3.2 4.8 0.13 0.13 0.13 95 1019.4
20260905115705 19 255 3.2 4.8 0.10 0.10 0.10 95 1019.4
20260905115155 20 253 3.2 4.8 0.10 0.10 0.10 96 1019.5
20260905114649 19 235 3.2 6.4 0.10 0.10 0.10 96 1019.5
20260905114145 20 209 3.2 6.4 0.10 0.10 0.10 95 1019.3
20260905113630 20 221 3.2 4.8 0.10 0.10 0.10 94 1019.3
20260905113128 20 259 3.2 6.4 0.10 0.10 0.10 94 1019.4
20260905112626 20 244 3.2 8.0 0.10 0.10 0.10 92 1019.3
20260905112121 20 229 3.2 8.0 0.08 0.08 0.08 92 1019.2
20260905111613 20 234 3.2 6.4 0.05 0.05 0.05 89 1019.4
20260905111104 20 234 1.6 6.4 0.05 0.05 0.05 86 1019.3
20260905110558 21 121 1.6 6.4 0.05 0.05 0.00 77 1019.2
20260905110100 22 197 3.2 9.7 0.00 0.00 0.00 71 1019.4
20260905105551 22 196 3.2 11.3 0.00 0.00 0.00 70 1019.2
20260905105036 22 197 3.2 11.3 0.00 0.00 0.00 70 1019.2
20260905104811 23 160 3.2 11.3 0.00 0.00 0.00 69 1019.1
20260905104027 23 221 1.6 11.3 0.00 0.00 0.00 69 1019.1
20260905103521 23 143 1.6 9.7 0.00 0.00 0.00 70 1019.1
20260905103016 23 167 1.6 9.7 0.00 0.00 0.00 70 1019.1
20260905102756 23 110 1.6 6.4 0.00 0.00 0.00 69 1019.1
20260905102014 23 160 1.6 6.4 0.00 0.00 0.00 69 1019.1
20260905101514 23 191 3.2 8.0 0.00 0.00 0.00 69 1019.2
20260905101253 23 219 1.6 8.0 0.00 0.00 0.00 69 1019.1
20260905100511 22 131 3.2 9.7 0.00 0.00 0.00 70 1019.1
20260905100013 23 163 3.2 9.7 0.00 0.00 0.00 69 1019.1
20260905095512 23 204 6.4 11.3 0.00 0.00 0.00 69 1019.2
20260905095009 23 142 8.0 12.9 0.00 0.00 0.00 69 1019.2
20260905094509 23 140 8.0 17.7 0.00 0.00 0.00 69 1019.1
20260905094009 23 146 6.4 17.7 0.00 0.00 0.00 69 1019.1
20260905093747 23 139 4.8 12.9 0.00 0.00 0.00 69 1019.0
20260905093009 23 133 4.8 14.5 0.00 0.00 0.00 71 1019.1
20260905092507 23 148 6.4 16.1 0.00 0.00 0.00 71 1019.0
20260905092006 23 115 4.8 16.1 0.00 0.00 0.00 73 1019.0
20260905091504 22 144 6.4 17.7 0.00 0.00 0.00 71 1018.9
20260905090956 23 120 4.8 17.7 0.00 0.00 0.00 71 1018.9
20260905090723 23 145 3.2 11.3 0.00 0.00 0.00 75 1018.7
20260905090213 22 213 3.2 8.0 0.00 0.00 0.00 74 1018.6
20260905085430 22 155 3.2 11.3 0.00 0.00 0.00 76 1018.5
20260905084930 22 90 4.8 11.3 0.00 0.00 0.00 78 1018.5
20260905084432 22 143 6.4 14.5 0.00 0.00 0.00 79 1018.4
20260905083929 22 105 4.8 14.5 0.00 0.00 0.00 79 1018.3
20260905083428 22 101 1.6 11.3 0.00 0.00 0.00 82 1018.1
20260905082929 21 123 1.6 6.4 0.00 0.00 0.00 87 1018.0
20260905082433 21 150 0.0 3.2 0.00 0.00 0.00 88 1017.9
20260905081929 21 184 0.0 3.2 0.00 0.00 0.00 89 1017.8
20260905081428 21 143 1.6 3.2 0.00 0.00 0.00 89 1017.7
20260905080930 21 192 0.0 3.2 0.00 0.00 0.00 89 1017.6
20260905080431 21 230 0.0 3.2 0.00 0.00 0.00 90 1017.5
20260905080208 21 243 0.0 3.2 0.00 0.00 0.00 91 1017.2
20260905075434 21 174 1.6 8.0 0.00 0.00 0.00 92 1017.0
20260905074913 21 175 3.2 8.0 0.00 0.00 0.00 91 1016.8
20260905074412 21 121 1.6 3.2 0.00 0.00 0.00 91 1016.6
20260905073906 21 245 1.6 11.3 0.00 0.00 0.00 90 1016.4
20260905073409 21 155 1.6 11.3 0.00 0.00 0.00 89 1016.6
20260905072912 21 197 0.0 1.6 0.00 0.00 0.00 88 1016.2
20260905072404 21 223 1.6 3.2 0.00 0.00 0.00 88 1015.9
20260905071905 21 236 0.0 3.2 0.00 0.00 0.00 87 1016.0
20260905071339 21 103 0.0 3.2 0.00 0.00 0.00 89 1015.9
20260905070836 21 103 0.0 3.2 0.00 0.00 0.00 88 1015.7
20260905070345 21 111 0.0 3.2 0.00 0.00 0.00 88 1015.6
20260905065830 21 78 0.0 1.6 0.00 0.00 0.00 89 1015.5
20260905065332 21 269 0.0 1.6 0.00 0.00 0.00 88 1015.4
20260905064830 20 250 0.0 1.6 0.00 0.00 0.00 89 1015.3
20260905064330 20 250 0.0 3.2 0.00 0.00 0.00 90 1015.2
20260905063830 20 275 0.0 3.2 0.00 0.00 0.00 90 1015.1
20260905063325 20 15 0.0 3.2 0.00 0.00 0.00 92 1015.1
20260905062827 20 19 0.0 3.2 0.00 0.00 0.00 91 1015.3
20260905062343 20 211 0.0 3.2 0.00 0.00 0.00 92 1015.1
20260905062337 20 19 0.0 3.2 0.00 0.00 0.00 93 1015.3
20260905061320 20 211 0.0 3.2 0.00 0.00 0.00 92 1014.8
20260905060816 20 211 0.0 3.2 0.00 0.00 0.00 92 1014.8
20260905060314 19 13 0.0 3.2 0.00 0.00 0.00 92 1014.8
20260905055815 19 13 0.0 3.2 0.00 0.00 0.00 93 1014.7
20260905055310 19 334 0.0 3.2 0.00 0.00 0.00 93 1014.7
20260905054803 19 57 0.0 3.2 0.00 0.00 0.00 93 1014.7
20260905054307 19 57 0.0 3.2 0.00 0.00 0.00 94 1014.6
20260905053804 18 57 0.0 3.2 0.00 0.00 0.00 95 1014.5
20260905053537 18 57 0.0 3.2 0.00 0.00 0.00 95 1014.4
20260905052816 18 57 0.0 4.8 0.00 0.00 0.00 96 1014.2
20260905052256 18 61 0.0 4.8 0.00 0.00 0.00 98 1014.3
20260905051733 18 234 0.0 1.6 0.00 0.00 0.00 99 1013.8
20260905051231 17 233 1.6 1.6 0.00 0.00 0.00 99 1013.8
20260905050730 17 234 1.6 3.2 0.00 0.00 0.00 99 1013.7
20260905050456 17 275 0.0 3.2 0.00 0.00 0.00 100 1013.6
20260905045713 17 275 0.0 3.2 0.00 0.00 0.00 100 1013.6
20260905045216 17 296 0.0 3.2 0.00 0.00 0.00 100 1013.5
20260905044705 17 296 0.0 0.0 0.00 0.00 0.00 100 1013.4
20260905044205 17 296 0.0 3.2 0.00 0.00 0.00 100 1013.4
20260905043702 17 295 0.0 3.2 0.00 0.00 0.00 100 1013.4
20260905043203 17 293 1.6 3.2 0.00 0.00 0.00 100 1013.2
20260905042702 17 349 1.6 3.2 0.00 0.00 0.00 100 1013.2
20260905042147 17 355 0.0 3.2 0.00 0.00 0.00 100 1013.2
20260905041646 17 309 0.0 3.2 0.00 0.00 0.00 100 1013.2
20260905041147 17 12 0.0 3.2 0.00 0.00 0.00 100 1013.2
20260905040920 17 340 0.0 3.2 0.00 0.00 0.00 100 1013.1
20260905040139 17 340 0.0 3.2 0.00 0.00 0.00 100 1013.1
20260905035633 17 340 0.0 3.2 0.00 0.00 0.00 100 1013.1
20260905035130 17 340 0.0 3.2 0.00 0.00 0.00 100 1013.1
20260905034909 17 47 0.0 3.2 0.00 0.00 0.00 100 1013.1
20260905034130 17 47 1.6 3.2 0.00 0.00 0.00 100 1013.1
20260905033908 17 48 1.6 3.2 0.00 0.00 0.00 100 1013.0
20260905033203 17 341 0.0 3.2 0.00 0.00 0.00 100 1012.8
20260905033153 17 33 0.0 3.2 0.00 0.00 0.00 100 1013.0
20260905032125 17 341 0.0 3.2 0.00 0.00 0.00 100 1012.8
20260905031611 17 341 0.0 1.6 0.00 0.00 0.00 99 1012.7
20260905031104 17 341 0.0 3.2 0.00 0.00 0.00 100 1012.7
20260905030846 17 325 0.0 3.2 0.00 0.00 0.00 100 1012.6
20260905030403 17 307 0.0 3.2 0.00 0.00 0.00 100 1012.5
20260905025602 17 306 0.0 1.6 0.00 0.00 0.00 100 1012.5
20260905025051 17 329 0.0 1.6 0.00 0.00 0.00 100 1012.6
20260905024838 17 311 1.6 3.2 0.00 0.00 0.00 100 1012.5
20260905024319 17 28 0.0 3.2 0.00 0.00 0.00 99 1012.5
20260905023819 17 30 0.0 3.2 0.00 0.00 0.00 99 1012.5